This demonstration page uses our WeatherBlox Daily Observations layout. Learn more.

Left ArrowRight Arrow

53.62937, 11.41316

Hourly Observations for May 16, 2021

Temp ( °F °C ) Dew Point ( °F °C ) Humidity (%) Winds ( mph kmh ) Pressure ( in mb ) Visibility ( mi km ) Precip ( " mm )
6:50 am 06:50 Mostly Sunny 48 9 46 8 94 94 ESE 3 6 29.56 1001 7 11 N/A
7:20 am 07:20 Mostly Sunny 48 9 46 8 94 94 ESE 3 6 29.56 1001 7 11 N/A
7:50 am 07:50 Mostly Sunny 48 9 48 9 100 100 SE 5 7 29.56 1001 7 11 N/A
8:20 am 08:20 Mostly Sunny 50 10 48 9 94 94 SE 7 11 29.56 1001 7 11 N/A
8:50 am 08:50 Mostly Cloudy 50 10 48 9 94 94 SSE 5 7 29.56 1001 30 48 N/A
9:20 am 09:20 Mostly Cloudy 52 11 50 10 94 94 SSE 6 9 29.56 1001 30 48 N/A
9:50 am 09:50 Mostly Cloudy 52 11 50 10 94 94 S 7 11 29.56 1001 30 48 N/A
10:20 am 10:20 Mostly Cloudy with Light Rain 52 11 50 10 94 94 S 6 9 29.56 1001 5 8 N/A
10:50 am 10:50 Mostly Cloudy 54 12 50 10 88 88 S 6 9 29.56 1001 30 48 N/A
11:20 am 11:20 Mostly Cloudy 54 12 50 10 88 88 S 7 11 29.56 1001 30 48 N/A
11:50 am 11:50 Mostly Cloudy 55 13 50 10 82 82 SE 6 9 29.56 1001 30 48 N/A
12:20 pm 12:20 Mostly Cloudy 57 14 50 10 77 77 SE 6 9 29.56 1001 30 48 N/A
12:50 pm 12:50 Partly Cloudy with Showers Nearby 57 14 46 8 67 67 SSW 8 13 29.53 1000 30 48 N/A
1:20 pm 13:20 Partly Cloudy 59 15 46 8 63 63 SSE 8 13 29.53 1000 30 48 N/A
1:50 pm 13:50 Partly Cloudy with Showers Nearby 57 14 46 8 67 67 SW 5 7 29.53 1000 30 48 N/A
2:20 pm 14:20 Partly Cloudy with Light Showers 57 14 46 8 67 67 SSE 8 13 29.53 1000 30 48 N/A
2:50 pm 14:50 Partly Cloudy with Showers Nearby 59 15 48 9 68 68 SSE 9 15 29.53 1000 30 48 N/A
3:20 pm 15:20 Partly Cloudy with Showers Nearby 57 14 46 8 67 67 S 10 17 29.53 1000 30 48 N/A
3:50 pm 15:50 Partly Cloudy with Showers Nearby 57 14 48 9 72 72 SSW 9 15 29.53 1000 30 48 N/A
4:20 pm 16:20 Partly Cloudy with Showers Nearby 59 15 45 7 59 59 SSW 10 17 29.53 1000 30 48 N/A
4:50 pm 16:50 Partly Cloudy with Light Showers 54 12 46 8 77 77 SSW 12 19 29.53 1000 30 48 N/A
5:20 pm 17:20 Partly Cloudy with Showers Nearby 55 13 46 8 72 72 SSE 5 7 29.53 1000 30 48 N/A
5:50 pm 17:50 Partly Cloudy with Showers Nearby 59 15 45 7 59 59 SSW 8 13 29.53 1000 30 48 N/A
6:20 pm 18:20 Partly Cloudy with Showers Nearby 54 12 45 7 72 72 WSW 7 11 29.53 1000 30 48 N/A
6:50 pm 18:50 Partly Cloudy with Light Showers 55 13 46 8 72 72 SW 7 11 29.53 1000 30 48 N/A
7:20 pm 19:20 Partly Cloudy with Showers Nearby 57 14 46 8 67 67 SSW 6 9 29.53 1000 30 48 N/A
7:50 pm 19:50 Partly Cloudy with Showers Nearby 59 15 46 8 63 63 VRB 2 4 29.53 1000 30 48 N/A
8:20 pm 20:20 Mostly Sunny 55 13 46 8 72 72 ESE 6 9 29.53 1000 7 11 N/A
8:50 pm 20:50 Mostly Sunny 55 13 46 8 72 72 SE 6 9 29.53 1000 7 11 N/A
9:20 pm 21:20 Mostly Clear 52 11 45 7 77 77 SSE 3 6 29.53 1000 7 11 N/A
9:50 pm 21:50 Mostly Clear 50 10 46 8 88 88 SSE 3 6 29.53 1000 7 11 N/A

Powered by AerisWeather